Погода в Лимане

Украина / Одесская область     45°40′19″N   29°45′01″E
темп.,
°C
ветер,
м/с
пор.,
м/с
влажн.,
%
обл.,
%
осадки,
мм/ч
давл.,
гПа
погр.,
м
29 июня, ср
ср2900:00+21ссз33565 0.0 101618
03:00+20ссз5754100 0.0 101699
06:00+21ссз49585 0.0 1015145
09:00+28ссв684897 0.0 1015454
12:00+30в664316 0.0 10141651
15:00+28вюв78505 0.0 1014506
18:00+28ююв33480 0.0 1014409
21:00+24ююз33610 0.0 101316
30 июня, чт
чт3000:00+23зюз22670 0.0 101312
03:00+22ююз11670 0.0 101411
06:00+22з23695 0.0 101331
09:00+27ю11495 0.0 1013414
12:00+30юв43425 0.0 10131266
15:00+30ююв544327 0.2 1012656
18:00+25вюв7862100 0.3 1012335
21:00+22ссв71081100 1.9 1013237
1 июля, пт
пт100:00+22юв5784100 2.4 1013189
03:00+21в459038 2.4 1015159
06:00+20св34910 0.0 1015159
09:00+24св457216 0.0 1016653
12:00+25в776122 0.0 10161111
15:00+25вюв89540 0.0 1016615
18:00+25в68470 0.0 1016566
21:00+22в22560 0.0 101712
2 июля, сб
сб200:00+22св34490 0.0 101837
03:00+21с33540 0.0 101825
06:00+20св45610 0.0 101987
09:00+25всв45490 0.0 1019557
12:00+26вюв66465 0.0 1021864
15:00+26вюв65455 0.0 1021783
18:00+25юв45438 0.0 1020488
21:00+22ю22560 0.0 102017
3 июля, вс
вс300:00+21зюз22543 0.0 102111
03:00+20сз225242 0.0 102120
06:00+20ссз335143 0.0 102041
09:00+26с23396 0.0 1020433
12:00+29юв44345 0.0 10201592
15:00+29ююв6536100 0.0 1019755
18:00+27ююв564153 0.0 1018380
21:00+23ююз47552 0.0 1018112